contact:dominique.lefevre@mio.osupytheas.fr, maurice.libes@osupytheas.fr, didier.mallarino@osupytheas.fr
Project:EMSO http://www.emso-fr.org/EMSO-France
Depth: 2436.0 m
Title:EMSO Ligure Ouest : Data MII capteur MICROCAT
DateTime_Computer,Latitude,Longitude,Temperature,Conductivity,Pressure,DateTime_Instrument
DateTime_Computer,Latitude,Longitude,degC,S m-1,dbar,DateTime_Instrument
2022-09-19T00:02:33Z,42.805,6.029,13.3030,4.60087,2470.46,2022-9-19T02:04:26Z
2022-09-19T00:05:36Z,42.805,6.029,13.3034,4.60081,2470.507,2022-9-19T02:07:29Z
2022-09-19T00:08:39Z,42.805,6.029,13.3056,4.60077,2470.52,2022-9-19T02:10:32Z
2022-09-19T00:11:42Z,42.805,6.029,13.3038,4.60078,2470.483,2022-9-19T02:13:35Z
2022-09-19T00:14:45Z,42.805,6.029,13.3035,4.60087,2470.53,2022-9-19T02:16:38Z
2022-09-19T00:17:49Z,42.805,6.029,13.3042,4.60073,2470.507,2022-9-19T02:19:41Z
2022-09-19T00:20:52Z,42.805,6.029,13.3034,4.60077,2470.47,2022-9-19T02:22:44Z
2022-09-19T00:23:55Z,42.805,6.029,13.3034,4.60067,2470.52,2022-9-19T02:25:48Z
2022-09-19T00:26:58Z,42.805,6.029,13.3041,4.60104,2470.52,2022-9-19T02:28:51Z
2022-09-19T00:30:01Z,42.805,6.029,13.3056,4.60114,2470.507,2022-9-19T02:31:54Z
2022-09-19T00:33:04Z,42.805,6.029,13.3029,4.60107,2470.53,2022-9-19T02:34:57Z
2022-09-19T00:36:07Z,42.805,6.029,13.3036,4.60134,2470.507,2022-9-19T02:38:00Z
2022-09-19T00:39:10Z,42.805,6.029,13.3027,4.60109,2470.507,2022-9-19T02:41:03Z
2022-09-19T00:42:14Z,42.805,6.029,13.3037,4.60102,2470.507,2022-9-19T02:44:06Z
2022-09-19T00:45:17Z,42.805,6.029,13.3043,4.60135,2470.52,2022-9-19T02:47:09Z
2022-09-19T00:48:20Z,42.805,6.029,13.3040,4.60114,2470.507,2022-9-19T02:50:13Z
2022-09-19T00:51:23Z,42.805,6.029,13.3038,4.60167,2470.507,2022-9-19T02:53:16Z
2022-09-19T00:54:26Z,42.805,6.029,13.3052,4.60079,2470.493,2022-9-19T02:56:19Z
2022-09-19T00:57:29Z,42.805,6.029,13.3055,4.60085,2470.52,2022-9-19T02:59:22Z
2022-09-19T01:00:32Z,42.805,6.029,13.3048,4.60109,2470.52,2022-9-19T03:02:25Z
2022-09-19T01:03:35Z,42.805,6.029,13.3046,4.60128,2470.483,2022-9-19T03:05:28Z
2022-09-19T01:06:39Z,42.805,6.029,13.3047,4.60121,2470.507,2022-9-19T03:08:31Z
2022-09-19T01:09:42Z,42.805,6.029,13.3043,4.60092,2470.544,2022-9-19T03:11:34Z
2022-09-19T01:12:45Z,42.805,6.029,13.3043,4.60104,2470.52,2022-9-19T03:14:37Z
2022-09-19T01:15:48Z,42.805,6.029,13.3050,4.60093,2470.507,2022-9-19T03:17:41Z
2022-09-19T01:18:51Z,42.805,6.029,13.3041,4.60104,2470.52,2022-9-19T03:20:44Z
2022-09-19T01:21:54Z,42.805,6.029,13.3033,4.60114,2470.507,2022-9-19T03:23:47Z
2022-09-19T01:24:57Z,42.805,6.029,13.3036,4.60120,2470.507,2022-9-19T03:26:50Z
2022-09-19T01:28:00Z,42.805,6.029,13.3026,4.60107,2470.507,2022-9-19T03:29:53Z
2022-09-19T01:31:03Z,42.805,6.029,13.3019,4.60108,2470.553,2022-9-19T03:32:56Z
2022-09-19T01:34:07Z,42.805,6.029,13.3024,4.60136,2470.507,2022-9-19T03:35:59Z
2022-09-19T01:37:10Z,42.805,6.029,13.3030,4.60117,2470.507,2022-9-19T03:39:02Z
2022-09-19T01:40:13Z,42.805,6.029,13.3021,4.60133,2470.497,2022-9-19T03:42:06Z
2022-09-19T01:43:16Z,42.805,6.029,13.3035,4.60130,2470.52,2022-9-19T03:45:09Z
2022-09-19T01:46:19Z,42.805,6.029,13.3026,4.60125,2470.483,2022-9-19T03:48:12Z
2022-09-19T01:49:22Z,42.805,6.029,13.3032,4.60135,2470.507,2022-9-19T03:51:15Z
2022-09-19T01:52:25Z,42.805,6.029,13.3042,4.60138,2470.497,2022-9-19T03:54:18Z
2022-09-19T01:55:28Z,42.805,6.029,13.3025,4.60119,2470.53,2022-9-19T03:57:21Z
2022-09-19T01:58:32Z,42.805,6.029,13.3048,4.60099,2470.52,2022-9-19T04:00:24Z
2022-09-19T02:01:35Z,42.805,6.029,13.3035,4.60108,2470.507,2022-9-19T04:03:27Z
2022-09-19T02:04:38Z,42.805,6.029,13.3029,4.60122,2470.497,2022-9-19T04:06:31Z
2022-09-19T02:07:41Z,42.805,6.029,13.3037,4.60135,2470.53,2022-9-19T04:09:34Z
2022-09-19T02:10:44Z,42.805,6.029,13.3050,4.60134,2470.53,2022-9-19T04:12:37Z
2022-09-19T02:13:47Z,42.805,6.029,13.3037,4.60128,2470.493,2022-9-19T04:15:40Z
2022-09-19T02:16:50Z,42.805,6.029,13.3032,4.60121,2470.544,2022-9-19T04:18:43Z
2022-09-19T02:19:53Z,42.805,6.029,13.3040,4.60122,2470.507,2022-9-19T04:21:46Z
2022-09-19T02:22:57Z,42.805,6.029,13.3046,4.60108,2470.52,2022-9-19T04:24:49Z
2022-09-19T02:26:00Z,42.805,6.029,13.3043,4.60111,2470.52,2022-9-19T04:27:52Z
2022-09-19T02:29:03Z,42.805,6.029,13.3046,4.60120,2470.507,2022-9-19T04:30:55Z
2022-09-19T02:32:06Z,42.805,6.029,13.3037,4.60107,2470.52,2022-9-19T04:33:59Z
2022-09-19T02:35:09Z,42.805,6.029,13.3039,4.60127,2470.507,2022-9-19T04:37:02Z
2022-09-19T02:38:12Z,42.805,6.029,13.3043,4.60146,2470.544,2022-9-19T04:40:05Z
2022-09-19T02:41:15Z,42.805,6.029,13.3034,4.60128,2470.483,2022-9-19T04:43:08Z
2022-09-19T02:44:18Z,42.805,6.029,13.3024,4.60112,2470.53,2022-9-19T04:46:11Z
2022-09-19T02:47:22Z,42.805,6.029,13.3026,4.60119,2470.53,2022-9-19T04:49:14Z
2022-09-19T02:50:25Z,42.805,6.029,13.3030,4.60138,2470.507,2022-9-19T04:52:17Z
2022-09-19T02:53:28Z,42.805,6.029,13.3036,4.60140,2470.507,2022-9-19T04:55:20Z
2022-09-19T02:56:31Z,42.805,6.029,13.3027,4.60138,2470.507,2022-9-19T04:58:24Z
2022-09-19T02:59:34Z,42.805,6.029,13.3036,4.60107,2470.483,2022-9-19T05:01:27Z
2022-09-19T03:02:37Z,42.805,6.029,13.3029,4.60140,2470.507,2022-9-19T05:04:30Z
2022-09-19T03:05:40Z,42.805,6.029,13.3034,4.60129,2470.52,2022-9-19T05:07:33Z
2022-09-19T03:08:43Z,42.805,6.029,13.3025,4.60123,2470.516,2022-9-19T05:10:36Z
2022-09-19T03:11:46Z,42.805,6.029,13.3024,4.60108,2470.53,2022-9-19T05:13:39Z
2022-09-19T03:14:50Z,42.805,6.029,13.3026,4.60139,2470.53,2022-9-19T05:16:42Z
2022-09-19T03:17:53Z,42.805,6.029,13.3022,4.60123,2470.53,2022-9-19T05:19:45Z
2022-09-19T03:20:56Z,42.805,6.029,13.3026,4.60115,2470.507,2022-9-19T05:22:49Z
2022-09-19T03:23:59Z,42.805,6.029,13.3016,4.60110,2470.497,2022-9-19T05:25:52Z
2022-09-19T03:27:02Z,42.805,6.029,13.3026,4.60124,2470.52,2022-9-19T05:28:55Z
2022-09-19T03:30:05Z,42.805,6.029,13.3036,4.60098,2470.493,2022-9-19T05:31:58Z
2022-09-19T03:33:08Z,42.805,6.029,13.3026,4.60094,2470.507,2022-9-19T05:35:01Z
2022-09-19T03:36:11Z,42.805,6.029,13.3025,4.60099,2470.507,2022-9-19T05:38:04Z
2022-09-19T03:39:15Z,42.805,6.029,13.3027,4.60127,2470.497,2022-9-19T05:41:07Z
2022-09-19T03:42:18Z,42.805,6.029,13.3036,4.60117,2470.53,2022-9-19T05:44:10Z
2022-09-19T03:45:21Z,42.805,6.029,13.3042,4.60105,2470.507,2022-9-19T05:47:14Z
2022-09-19T03:48:24Z,42.805,6.029,13.3023,4.60127,2470.53,2022-9-19T05:50:17Z
2022-09-19T03:51:27Z,42.805,6.029,13.3034,4.60121,2470.507,2022-9-19T05:53:20Z
2022-09-19T03:54:30Z,42.805,6.029,13.3055,4.60135,2470.497,2022-9-19T05:56:23Z
2022-09-19T03:57:33Z,42.805,6.029,13.3043,4.60126,2470.483,2022-9-19T05:59:26Z
2022-09-19T04:00:36Z,42.805,6.029,13.3024,4.60131,2470.483,2022-9-19T06:02:29Z
2022-09-19T04:03:40Z,42.805,6.029,13.3029,4.60089,2470.497,2022-9-19T06:05:32Z
2022-09-19T04:06:43Z,42.805,6.029,13.3040,4.60120,2470.483,2022-9-19T06:08:35Z
2022-09-19T04:09:46Z,42.805,6.029,13.3032,4.60093,2470.497,2022-9-19T06:11:38Z
2022-09-19T04:12:49Z,42.805,6.029,13.3053,4.60144,2470.544,2022-9-19T06:14:42Z
2022-09-19T04:15:52Z,42.805,6.029,13.3075,4.60140,2470.507,2022-9-19T06:17:45Z
2022-09-19T04:18:55Z,42.805,6.029,13.3045,4.60117,2470.53,2022-9-19T06:20:48Z
2022-09-19T04:21:58Z,42.805,6.029,13.3043,4.60132,2470.497,2022-9-19T06:23:51Z
2022-09-19T04:25:01Z,42.805,6.029,13.3063,4.60104,2470.507,2022-9-19T06:26:54Z
2022-09-19T04:28:05Z,42.805,6.029,13.3067,4.60144,2470.52,2022-9-19T06:29:57Z
2022-09-19T04:31:08Z,42.805,6.029,13.3070,4.60122,2470.52,2022-9-19T06:33:00Z
2022-09-19T04:34:11Z,42.805,6.029,13.3078,4.60207,2470.544,2022-9-19T06:36:03Z
2022-09-19T04:37:14Z,42.805,6.029,13.3097,4.60180,2470.507,2022-9-19T06:39:07Z
2022-09-19T04:40:17Z,42.805,6.029,13.3063,4.60183,2470.483,2022-9-19T06:42:10Z
2022-09-19T04:43:20Z,42.805,6.029,13.3043,4.60185,2470.497,2022-9-19T06:45:13Z
2022-09-19T04:46:23Z,42.805,6.029,13.3078,4.60151,2470.474,2022-9-19T06:48:16Z
2022-09-19T04:49:26Z,42.805,6.029,13.3089,4.60120,2470.507,2022-9-19T06:51:19Z
2022-09-19T04:52:29Z,42.805,6.029,13.3067,4.60129,2470.497,2022-9-19T06:54:22Z
2022-09-19T04:55:33Z,42.805,6.029,13.3031,4.60150,2470.52,2022-9-19T06:57:25Z
2022-09-19T04:58:36Z,42.805,6.029,13.3072,4.60144,2470.507,2022-9-19T07:00:28Z
2022-09-19T05:01:39Z,42.805,6.029,13.3093,4.60123,2470.507,2022-9-19T07:03:32Z
2022-09-19T05:04:42Z,42.805,6.029,13.3094,4.60154,2470.52,2022-9-19T07:06:35Z
2022-09-19T05:07:45Z,42.805,6.029,13.3078,4.60184,2470.52,2022-9-19T07:09:38Z
2022-09-19T05:10:48Z,42.805,6.029,13.3046,4.60110,2470.507,2022-9-19T07:12:41Z
2022-09-19T05:13:51Z,42.805,6.029,13.3062,4.60117,2470.52,2022-9-19T07:15:44Z
2022-09-19T05:16:54Z,42.805,6.029,13.3066,4.60132,2470.52,2022-9-19T07:18:47Z
2022-09-19T05:19:58Z,42.805,6.029,13.3048,4.60113,2470.52,2022-9-19T07:21:50Z
2022-09-19T05:23:01Z,42.805,6.029,13.3059,4.60117,2470.497,2022-9-19T07:24:53Z
2022-09-19T05:26:04Z,42.805,6.029,13.3061,4.60127,2470.483,2022-9-19T07:27:57Z
2022-09-19T05:29:07Z,42.805,6.029,13.3076,4.60119,2470.483,2022-9-19T07:31:00Z
2022-09-19T05:32:10Z,42.805,6.029,13.3091,4.60094,2470.507,2022-9-19T07:34:03Z
2022-09-19T05:35:13Z,42.805,6.029,13.3057,4.60082,2470.507,2022-9-19T07:37:06Z
2022-09-19T05:38:16Z,42.805,6.029,13.3063,4.60114,2470.544,2022-9-19T07:40:09Z
2022-09-19T05:41:19Z,42.805,6.029,13.3093,4.60086,2470.507,2022-9-19T07:43:12Z
2022-09-19T05:44:23Z,42.805,6.029,13.3059,4.60088,2470.52,2022-9-19T07:46:15Z
2022-09-19T05:47:26Z,42.805,6.029,13.3035,4.60067,2470.483,2022-9-19T07:49:18Z
2022-09-19T05:50:29Z,42.805,6.029,13.3041,4.60072,2470.507,2022-9-19T07:52:22Z
2022-09-19T05:53:32Z,42.805,6.029,13.3049,4.60097,2470.483,2022-9-19T07:55:25Z
2022-09-19T05:56:35Z,42.805,6.029,13.3045,4.60081,2470.507,2022-9-19T07:58:28Z
2022-09-19T05:59:38Z,42.805,6.029,13.3051,4.60076,2470.497,2022-9-19T08:01:31Z
2022-09-19T06:02:41Z,42.805,6.029,13.3043,4.60087,2470.567,2022-9-19T08:04:34Z
2022-09-19T06:05:44Z,42.805,6.029,13.3037,4.60072,2470.567,2022-9-19T08:07:37Z
2022-09-19T06:08:47Z,42.805,6.029,13.3047,4.60083,2470.497,2022-9-19T08:10:40Z
2022-09-19T06:11:51Z,42.805,6.029,13.3050,4.60086,2470.46,2022-9-19T08:13:43Z
2022-09-19T06:14:54Z,42.805,6.029,13.3057,4.60091,2470.53,2022-9-19T08:16:46Z
2022-09-19T06:17:57Z,42.805,6.029,13.3069,4.60079,2470.507,2022-9-19T08:19:50Z
2022-09-19T06:21:00Z,42.805,6.029,13.3062,4.60087,2470.497,2022-9-19T08:22:53Z
2022-09-19T06:24:03Z,42.805,6.029,13.3076,4.60081,2470.52,2022-9-19T08:25:56Z
2022-09-19T06:27:06Z,42.805,6.029,13.3070,4.60096,2470.483,2022-9-19T08:28:59Z
2022-09-19T06:30:09Z,42.805,6.029,13.3051,4.60087,2470.507,2022-9-19T08:32:02Z
2022-09-19T06:33:12Z,42.805,6.029,13.3051,4.60087,2470.483,2022-9-19T08:35:05Z
2022-09-19T06:36:16Z,42.805,6.029,13.3061,4.60084,2470.483,2022-9-19T08:38:08Z
2022-09-19T06:39:19Z,42.805,6.029,13.3048,4.60074,2470.52,2022-9-19T08:41:11Z
2022-09-19T06:42:22Z,42.805,6.029,13.3042,4.60084,2470.507,2022-9-19T08:44:15Z
2022-09-19T06:45:25Z,42.805,6.029,13.3062,4.60085,2470.544,2022-9-19T08:47:18Z
2022-09-19T06:48:28Z,42.805,6.029,13.3050,4.60087,2470.53,2022-9-19T08:50:21Z
2022-09-19T06:51:31Z,42.805,6.029,13.3036,4.60080,2470.497,2022-9-19T08:53:24Z
2022-09-19T06:54:34Z,42.805,6.029,13.3056,4.60095,2470.497,2022-9-19T08:56:27Z
2022-09-19T06:57:37Z,42.805,6.029,13.3039,4.60079,2470.544,2022-9-19T08:59:30Z
2022-09-19T07:00:41Z,42.805,6.029,13.3048,4.60099,2470.507,2022-9-19T09:02:33Z
2022-09-19T07:03:44Z,42.805,6.029,13.3050,4.60087,2470.474,2022-9-19T09:05:36Z
2022-09-19T07:06:47Z,42.805,6.029,13.3058,4.60081,2470.52,2022-9-19T09:08:40Z
2022-09-19T07:09:50Z,42.805,6.029,13.3039,4.60088,2470.52,2022-9-19T09:11:43Z
2022-09-19T07:12:53Z,42.805,6.029,13.3046,4.60094,2470.483,2022-9-19T09:14:46Z
2022-09-19T07:15:56Z,42.805,6.029,13.3053,4.60076,2470.544,2022-9-19T09:17:49Z
2022-09-19T07:18:59Z,42.805,6.029,13.3053,4.60086,2470.507,2022-9-19T09:20:52Z
2022-09-19T07:22:02Z,42.805,6.029,13.3084,4.60114,2470.483,2022-9-19T09:23:55Z
2022-09-19T07:25:06Z,42.805,6.029,13.3045,4.60116,2470.507,2022-9-19T09:26:58Z
2022-09-19T07:28:09Z,42.805,6.029,13.3041,4.60083,2470.497,2022-9-19T09:30:01Z
2022-09-19T07:31:12Z,42.805,6.029,13.3036,4.60098,2470.52,2022-9-19T09:33:05Z
2022-09-19T07:34:15Z,42.805,6.029,13.3040,4.60083,2470.497,2022-9-19T09:36:08Z
2022-09-19T07:37:18Z,42.805,6.029,13.3038,4.60086,2470.52,2022-9-19T09:39:11Z
2022-09-19T07:40:21Z,42.805,6.029,13.3039,4.60109,2470.497,2022-9-19T09:42:14Z
2022-09-19T07:43:24Z,42.805,6.029,13.3019,4.60099,2470.52,2022-9-19T09:45:17Z
2022-09-19T07:46:27Z,42.805,6.029,13.3039,4.60087,2470.507,2022-9-19T09:48:20Z
2022-09-19T07:49:31Z,42.805,6.029,13.3014,4.60073,2470.497,2022-9-19T09:51:23Z
2022-09-19T07:52:34Z,42.805,6.029,13.3019,4.60080,2470.507,2022-9-19T09:54:26Z
2022-09-19T07:55:37Z,42.805,6.029,13.3019,4.60071,2470.507,2022-9-19T09:57:30Z
2022-09-19T07:58:40Z,42.805,6.029,13.3034,4.60073,2470.507,2022-9-19T10:00:33Z
2022-09-19T08:01:43Z,42.805,6.029,13.3008,4.60074,2470.53,2022-9-19T10:03:36Z
2022-09-19T08:04:46Z,42.805,6.029,13.3011,4.60069,2470.507,2022-9-19T10:06:39Z
2022-09-19T08:07:49Z,42.805,6.029,13.3009,4.60059,2470.53,2022-9-19T10:09:42Z
2022-09-19T08:10:52Z,42.805,6.029,13.3009,4.60059,2470.507,2022-9-19T10:12:45Z
2022-09-19T08:13:55Z,42.805,6.029,13.3013,4.60057,2470.553,2022-9-19T10:15:48Z
2022-09-19T08:16:59Z,42.805,6.029,13.3013,4.60057,2470.507,2022-9-19T10:18:51Z
2022-09-19T08:20:02Z,42.805,6.029,13.3010,4.60057,2470.53,2022-9-19T10:21:55Z
2022-09-19T08:23:05Z,42.805,6.029,13.3011,4.60059,2470.52,2022-9-19T10:24:58Z
2022-09-19T08:26:08Z,42.805,6.029,13.3007,4.60056,2470.507,2022-9-19T10:28:01Z
2022-09-19T08:29:11Z,42.805,6.029,13.3009,4.60056,2470.53,2022-9-19T10:31:04Z
2022-09-19T08:32:14Z,42.805,6.029,13.3014,4.60057,2470.507,2022-9-19T10:34:07Z
2022-09-19T08:35:17Z,42.805,6.029,13.3013,4.60055,2470.483,2022-9-19T10:37:10Z
2022-09-19T08:38:21Z,42.805,6.029,13.3010,4.60057,2470.52,2022-9-19T10:40:13Z
2022-09-19T08:41:24Z,42.805,6.029,13.3014,4.60057,2470.507,2022-9-19T10:43:16Z
2022-09-19T08:44:27Z,42.805,6.029,13.3009,4.60056,2470.544,2022-9-19T10:46:20Z
2022-09-19T08:47:30Z,42.805,6.029,13.3014,4.60057,2470.53,2022-9-19T10:49:23Z
2022-09-19T08:50:33Z,42.805,6.029,13.3013,4.60060,2470.507,2022-9-19T10:52:26Z
2022-09-19T08:53:36Z,42.805,6.029,13.3015,4.60059,2470.553,2022-9-19T10:55:29Z
2022-09-19T08:56:39Z,42.805,6.029,13.3013,4.60063,2470.553,2022-9-19T10:58:32Z
2022-09-19T08:59:42Z,42.805,6.029,13.3011,4.60055,2470.53,2022-9-19T11:01:35Z
2022-09-19T09:02:46Z,42.805,6.029,13.3011,4.60057,2470.544,2022-9-19T11:04:38Z
2022-09-19T09:05:49Z,42.805,6.029,13.3011,4.60056,2470.483,2022-9-19T11:07:41Z
2022-09-19T09:08:52Z,42.805,6.029,13.3013,4.60059,2470.567,2022-9-19T11:10:45Z
2022-09-19T09:11:55Z,42.805,6.029,13.3012,4.60056,2470.553,2022-9-19T11:13:48Z
2022-09-19T09:14:58Z,42.805,6.029,13.3010,4.60057,2470.53,2022-9-19T11:16:51Z
2022-09-19T09:18:01Z,42.805,6.029,13.3011,4.60054,2470.534,2022-9-19T11:19:54Z
2022-09-19T09:21:04Z,42.805,6.029,13.3012,4.60057,2470.567,2022-9-19T11:22:57Z
2022-09-19T09:24:07Z,42.805,6.029,13.3012,4.60054,2470.553,2022-9-19T11:26:00Z
2022-09-19T09:27:11Z,42.805,6.029,13.3010,4.60059,2470.53,2022-9-19T11:29:03Z
2022-09-19T09:30:14Z,42.805,6.029,13.3009,4.60057,2470.53,2022-9-19T11:32:06Z
2022-09-19T09:33:17Z,42.805,6.029,13.3010,4.60059,2470.53,2022-9-19T11:35:10Z
2022-09-19T09:36:20Z,42.805,6.029,13.3014,4.60056,2470.553,2022-9-19T11:38:13Z
2022-09-19T09:39:23Z,42.805,6.029,13.3015,4.60055,2470.577,2022-9-19T11:41:16Z
2022-09-19T09:42:26Z,42.805,6.029,13.3011,4.60054,2470.553,2022-9-19T11:44:19Z
2022-09-19T09:45:29Z,42.805,6.029,13.3014,4.60055,2470.553,2022-9-19T11:47:22Z
2022-09-19T09:48:32Z,42.805,6.029,13.3011,4.60053,2470.53,2022-9-19T11:50:25Z
2022-09-19T09:51:36Z,42.805,6.029,13.3014,4.60053,2470.553,2022-9-19T11:53:28Z
2022-09-19T09:54:39Z,42.805,6.029,13.3010,4.60054,2470.544,2022-9-19T11:56:31Z
2022-09-19T09:57:42Z,42.805,6.029,13.3011,4.60055,2470.544,2022-9-19T11:59:35Z
2022-09-19T10:00:45Z,42.805,6.029,13.3012,4.60055,2470.577,2022-9-19T12:02:38Z
2022-09-19T10:03:48Z,42.805,6.029,13.3014,4.60057,2470.567,2022-9-19T12:05:41Z
2022-09-19T10:06:51Z,42.805,6.029,13.3011,4.60054,2470.544,2022-9-19T12:08:44Z
2022-09-19T10:09:54Z,42.805,6.029,13.3009,4.60054,2470.553,2022-9-19T12:11:47Z
2022-09-19T10:12:57Z,42.805,6.029,13.3011,4.60056,2470.577,2022-9-19T12:14:50Z
2022-09-19T10:16:01Z,42.805,6.029,13.3014,4.60054,2470.539,2022-9-19T12:17:53Z
2022-09-19T10:19:04Z,42.805,6.029,13.3007,4.60057,2470.567,2022-9-19T12:20:56Z
2022-09-19T10:22:07Z,42.805,6.029,13.3011,4.60056,2470.553,2022-9-19T12:24:00Z
2022-09-19T10:25:10Z,42.805,6.029,13.3014,4.60055,2470.614,2022-9-19T12:27:03Z
2022-09-19T10:28:13Z,42.805,6.029,13.3017,4.60059,2470.586,2022-9-19T12:30:06Z
2022-09-19T10:31:16Z,42.805,6.029,13.3013,4.60057,2470.577,2022-9-19T12:33:09Z
2022-09-19T10:34:19Z,42.805,6.029,13.3015,4.60058,2470.6,2022-9-19T12:36:12Z
2022-09-19T10:37:22Z,42.805,6.029,13.3012,4.60056,2470.553,2022-9-19T12:39:15Z
2022-09-19T10:40:26Z,42.805,6.029,13.3015,4.60058,2470.6,2022-9-19T12:42:18Z
2022-09-19T10:43:29Z,42.805,6.029,13.3015,4.60052,2470.577,2022-9-19T12:45:21Z
2022-09-19T10:46:32Z,42.805,6.029,13.3019,4.60052,2470.577,2022-9-19T12:48:25Z
2022-09-19T10:49:35Z,42.805,6.029,13.3016,4.60059,2470.591,2022-9-19T12:51:28Z
2022-09-19T10:52:38Z,42.805,6.029,13.3013,4.60052,2470.591,2022-9-19T12:54:31Z
2022-09-19T10:55:41Z,42.805,6.029,13.3011,4.60052,2470.6,2022-9-19T12:57:34Z
2022-09-19T10:58:44Z,42.805,6.029,13.3012,4.60053,2470.577,2022-9-19T13:00:37Z
2022-09-19T11:01:47Z,42.805,6.029,13.3011,4.60053,2470.6,2022-9-19T13:03:40Z
2022-09-19T11:04:51Z,42.805,6.029,13.3009,4.60055,2470.6,2022-9-19T13:06:43Z
2022-09-19T11:07:54Z,42.805,6.029,13.3011,4.60054,2470.591,2022-9-19T13:09:46Z
2022-09-19T11:10:57Z,42.805,6.029,13.3010,4.60054,2470.577,2022-9-19T13:12:50Z
2022-09-19T11:14:00Z,42.805,6.029,13.3012,4.60053,2470.577,2022-9-19T13:15:53Z
2022-09-19T11:17:03Z,42.805,6.029,13.3013,4.60054,2470.553,2022-9-19T13:18:56Z
2022-09-19T11:20:06Z,42.805,6.029,13.3013,4.60056,2470.614,2022-9-19T13:21:59Z
2022-09-19T11:23:09Z,42.805,6.029,13.3013,4.60055,2470.6,2022-9-19T13:25:02Z
2022-09-19T11:26:12Z,42.805,6.029,13.3011,4.60054,2470.6,2022-9-19T13:28:05Z
2022-09-19T11:29:16Z,42.805,6.029,13.3013,4.60054,2470.624,2022-9-19T13:31:08Z
2022-09-19T11:32:19Z,42.805,6.029,13.3013,4.60054,2470.577,2022-9-19T13:34:11Z
2022-09-19T11:35:22Z,42.805,6.029,13.3014,4.60054,2470.6,2022-9-19T13:37:15Z
2022-09-19T11:38:25Z,42.805,6.029,13.3013,4.60056,2470.586,2022-9-19T13:40:18Z
2022-09-19T11:41:28Z,42.805,6.029,13.3014,4.60053,2470.624,2022-9-19T13:43:21Z
2022-09-19T11:44:31Z,42.805,6.029,13.3009,4.60053,2470.614,2022-9-19T13:46:24Z
2022-09-19T11:47:34Z,42.805,6.029,13.3011,4.60057,2470.577,2022-9-19T13:49:27Z
2022-09-19T11:50:37Z,42.805,6.029,13.3012,4.60054,2470.577,2022-9-19T13:52:30Z
2022-09-19T11:53:41Z,42.805,6.029,13.3011,4.60056,2470.577,2022-9-19T13:55:33Z
2022-09-19T11:56:44Z,42.805,6.029,13.3013,4.60054,2470.577,2022-9-19T13:58:36Z
2022-09-19T11:59:47Z,42.805,6.029,13.3010,4.60057,2470.624,2022-9-19T14:01:40Z
2022-09-19T12:02:50Z,42.805,6.029,13.3016,4.60060,2470.591,2022-9-19T14:04:43Z
2022-09-19T12:05:53Z,42.805,6.029,13.3009,4.60055,2470.624,2022-9-19T14:07:46Z
2022-09-19T12:08:56Z,42.805,6.029,13.3015,4.60055,2470.614,2022-9-19T14:10:49Z
2022-09-19T12:11:59Z,42.805,6.029,13.3011,4.60057,2470.591,2022-9-19T14:13:52Z
2022-09-19T12:15:02Z,42.805,6.029,13.3012,4.60057,2470.637,2022-9-19T14:16:55Z
2022-09-19T12:18:06Z,42.805,6.029,13.3013,4.60055,2470.6,2022-9-19T14:19:58Z
2022-09-19T12:21:09Z,42.805,6.029,13.3013,4.60059,2470.614,2022-9-19T14:23:01Z
2022-09-19T12:24:12Z,42.805,6.029,13.3012,4.60055,2470.624,2022-9-19T14:26:05Z
2022-09-19T12:27:15Z,42.805,6.029,13.3011,4.60053,2470.637,2022-9-19T14:29:08Z
2022-09-19T12:30:18Z,42.805,6.029,13.3010,4.60057,2470.637,2022-9-19T14:32:11Z
2022-09-19T12:33:21Z,42.805,6.029,13.3014,4.60054,2470.624,2022-9-19T14:35:14Z
2022-09-19T12:36:24Z,42.805,6.029,13.3016,4.60056,2470.577,2022-9-19T14:38:17Z
2022-09-19T12:39:27Z,42.805,6.029,13.3013,4.60054,2470.661,2022-9-19T14:41:20Z
2022-09-19T12:42:31Z,42.805,6.029,13.3013,4.60052,2470.6,2022-9-19T14:44:23Z
2022-09-19T12:45:34Z,42.805,6.029,13.3011,4.60056,2470.624,2022-9-19T14:47:26Z
2022-09-19T12:48:37Z,42.805,6.029,13.3011,4.60056,2470.624,2022-9-19T14:50:30Z
2022-09-19T12:51:40Z,42.805,6.029,13.3007,4.60055,2470.637,2022-9-19T14:53:33Z
2022-09-19T12:54:43Z,42.805,6.029,13.3008,4.60054,2470.624,2022-9-19T14:56:36Z
2022-09-19T12:57:46Z,42.805,6.029,13.3008,4.60053,2470.661,2022-9-19T14:59:39Z
2022-09-19T13:00:49Z,42.805,6.029,13.3011,4.60054,2470.624,2022-9-19T15:02:42Z
2022-09-19T13:03:52Z,42.805,6.029,13.3011,4.60053,2470.661,2022-9-19T15:05:45Z
2022-09-19T13:06:56Z,42.805,6.029,13.3012,4.60055,2470.67,2022-9-19T15:08:48Z
2022-09-19T13:09:59Z,42.805,6.029,13.3014,4.60055,2470.637,2022-9-19T15:11:51Z
2022-09-19T13:13:02Z,42.805,6.029,13.3012,4.60057,2470.646,2022-9-19T15:14:55Z
2022-09-19T13:16:05Z,42.805,6.029,13.3014,4.60060,2470.646,2022-9-19T15:17:58Z
2022-09-19T13:19:08Z,42.805,6.029,13.3011,4.60055,2470.646,2022-9-19T15:21:01Z
2022-09-19T13:22:11Z,42.805,6.029,13.3012,4.60054,2470.624,2022-9-19T15:24:04Z
2022-09-19T13:25:14Z,42.805,6.029,13.3011,4.60054,2470.646,2022-9-19T15:27:07Z
2022-09-19T13:28:17Z,42.805,6.029,13.3012,4.60054,2470.646,2022-9-19T15:30:10Z
2022-09-19T13:31:21Z,42.805,6.029,13.3013,4.60054,2470.646,2022-9-19T15:33:13Z
2022-09-19T13:34:24Z,42.805,6.029,13.3015,4.60056,2470.661,2022-9-19T15:36:16Z
2022-09-19T13:37:27Z,42.805,6.029,13.3014,4.60053,2470.646,2022-9-19T15:39:20Z
2022-09-19T13:40:30Z,42.805,6.029,13.3013,4.60057,2470.633,2022-9-19T15:42:23Z
2022-09-19T13:43:33Z,42.805,6.029,13.3009,4.60057,2470.661,2022-9-19T15:45:26Z
2022-09-19T13:46:36Z,42.805,6.029,13.3009,4.60053,2470.684,2022-9-19T15:48:29Z
2022-09-19T13:49:39Z,42.805,6.029,13.3012,4.60054,2470.637,2022-9-19T15:51:32Z
2022-09-19T13:52:43Z,42.805,6.029,13.3012,4.60052,2470.637,2022-9-19T15:54:35Z
2022-09-19T13:55:46Z,42.805,6.029,13.3011,4.60053,2470.646,2022-9-19T15:57:38Z
2022-09-19T13:58:49Z,42.805,6.029,13.3012,4.60055,2470.646,2022-9-19T16:00:42Z
2022-09-19T14:01:52Z,42.805,6.029,13.3008,4.60053,2470.646,2022-9-19T16:03:45Z
2022-09-19T14:04:55Z,42.805,6.029,13.3011,4.60054,2470.614,2022-9-19T16:06:48Z
2022-09-19T14:07:58Z,42.805,6.029,13.3009,4.60053,2470.646,2022-9-19T16:09:51Z
2022-09-19T14:11:01Z,42.805,6.029,13.3014,4.60054,2470.646,2022-9-19T16:12:54Z
2022-09-19T14:14:04Z,42.805,6.029,13.3010,4.60054,2470.661,2022-9-19T16:15:57Z
2022-09-19T14:17:08Z,42.805,6.029,13.3011,4.60059,2470.646,2022-9-19T16:19:00Z
2022-09-19T14:20:11Z,42.805,6.029,13.3012,4.60054,2470.646,2022-9-19T16:22:03Z
2022-09-19T14:23:14Z,42.805,6.029,13.3011,4.60052,2470.646,2022-9-19T16:25:07Z
2022-09-19T14:26:17Z,42.805,6.029,13.3008,4.60056,2470.646,2022-9-19T16:28:10Z
2022-09-19T14:29:20Z,42.805,6.029,13.3018,4.60058,2470.661,2022-9-19T16:31:13Z
2022-09-19T14:32:23Z,42.805,6.029,13.3016,4.60057,2470.684,2022-9-19T16:34:16Z
2022-09-19T14:35:26Z,42.805,6.029,13.3014,4.60053,2470.646,2022-9-19T16:37:19Z
2022-09-19T14:38:29Z,42.805,6.029,13.3014,4.60056,2470.646,2022-9-19T16:40:22Z
2022-09-19T14:41:33Z,42.805,6.029,13.3023,4.60067,2470.661,2022-9-19T16:43:25Z
2022-09-19T14:44:36Z,42.805,6.029,13.3036,4.60118,2470.684,2022-9-19T16:46:28Z
2022-09-19T14:47:39Z,42.805,6.029,13.3022,4.60100,2470.624,2022-9-19T16:49:32Z
2022-09-19T14:50:42Z,42.805,6.029,13.3027,4.60135,2470.67,2022-9-19T16:52:35Z
2022-09-19T14:53:45Z,42.805,6.029,13.3045,4.60097,2470.646,2022-9-19T16:55:38Z
2022-09-19T14:56:48Z,42.805,6.029,13.3034,4.60144,2470.67,2022-9-19T16:58:41Z
2022-09-19T14:59:51Z,42.805,6.029,13.3045,4.60115,2470.646,2022-9-19T17:01:44Z
2022-09-19T15:02:54Z,42.805,6.029,13.3048,4.60130,2470.684,2022-9-19T17:04:47Z
2022-09-19T15:05:58Z,42.805,6.029,13.3034,4.60119,2470.674,2022-9-19T17:07:50Z
2022-09-19T15:09:01Z,42.805,6.029,13.3044,4.60106,2470.684,2022-9-19T17:10:53Z
2022-09-19T15:12:04Z,42.805,6.029,13.3021,4.60104,2470.684,2022-9-19T17:13:57Z
2022-09-19T15:15:07Z,42.805,6.029,13.3027,4.60110,2470.67,2022-9-19T17:17:00Z